Waarnemingen

Advertentie
Mijn weer
Lugo/Rozas, Spanje (8008): temperatuur & dauwpunt: 15.01.2021 21:00:00 - 21.01.2021 21:00:00 (CET)Lugo/Rozas, Spanje (8008): windsnelheid: 15.01.2021 21:00:00 - 21.01.2021 21:00:00 (CET)Lugo/Rozas, Spanje (8008): windrichting: 15.01.2021 21:00:00 - 21.01.2021 21:00:00 (CET)Lugo/Rozas, Spanje (8008): luchtdruk: 15.01.2021 21:00:00 - 21.01.2021 21:00:00 (CET)Lugo/Rozas, Spanje (8008): zicht: 15.01.2021 21:00:00 - 21.01.2021 21:00:00 (CET)Lugo/Rozas, Spanje (8008): neerslag: 15.01.2021 21:00:00 - 21.01.2021 21:00:00 (CET)
Datum & Tijd tt [°C] td [°C] ff [km/u] ff [kn] dd ppp [hPa] vv [km] rr [mm]
21.01.2021 21:00:00 - - - - - - - -
21.01.2021 20:00:00 10,3 5,5 26 14 ZW 1004,8 15 0,0
21.01.2021 19:00:00 10,6 5,8 22 12 WZW 1004,8 20 -
21.01.2021 18:00:00 11,1 5,4 24 13 ZW 1004,7 20 0,0
21.01.2021 17:00:00 11,6 5,7 28 15 WZW 1004,6 20 0,0
21.01.2021 16:00:00 12,6 6,2 31 17 WZW 1004,4 20 -
21.01.2021 15:00:00 12,4 6,7 28 15 WZW 1003,8 20 0,0
21.01.2021 14:00:00 12,8 7,9 29 16 WZW 1003,8 20 0,0
21.01.2021 13:00:00 12,8 8,3 29 16 WZW 1004,3 20 -
21.01.2021 12:00:00 10,5 9,3 21 11 ZW 1004,3 16 0,8
21.01.2021 11:00:00 9,5 8,3 18 10 ZZW 1003,8 7 0,8
21.01.2021 10:00:00 9,0 7,8 18 10 ZZW 1004,5 16 -
21.01.2021 09:00:00 9,0 7,8 16 9 ZZW 1005,2 4,4 2,0
21.01.2021 08:00:00 9,4 7,3 22 12 ZZW 1004,7 19 0,0
21.01.2021 07:00:00 9,4 7,7 21 11 ZW 1005,6 20 -
21.01.2021 06:00:00 8,9 7,5 15 8 ZZW 1006,1 20 0,0
21.01.2021 05:00:00 8,8 6,9 13 7 ZW 1006,9 20 0,0
21.01.2021 04:00:00 9,0 7,3 13 7 ZW 1007,3 20 -
21.01.2021 03:00:00 9,1 7,7 15 8 ZW 1006,9 14 0,0
21.01.2021 02:00:00 9,2 8,3 13 7 ZW 1006,3 18 0,0
21.01.2021 01:00:00 9,2 7,5 15 8 WZW 1006,1 20 -
21.01.2021 00:00:00 9,5 8,3 11 6 ZW 1005,3 17 0,0
20.01.2021 23:00:00 9,6 8,0 13 7 ZW 1004,4 20 0,0
20.01.2021 22:00:00 9,6 8,2 18 10 WZW 1003,8 15 -
20.01.2021 21:00:00 9,6 8,4 15 8 ZW 1002,7 15 0,2
20.01.2021 20:00:00 9,7 8,0 15 8 WZW 1002,0 20 0,0
20.01.2021 19:00:00 9,7 8,1 13 7 ZW 1000,9 20 -
20.01.2021 18:00:00 9,7 8,8 16 9 WZW 1000,1 8 4,0
20.01.2021 17:00:00 9,9 8,7 16 9 WZW 999,2 2,5 2,0
20.01.2021 16:00:00 10,0 8,6 16 9 WZW 998,7 14 -
20.01.2021 15:00:00 10,2 8,6 18 10 ZW 997,8 20 1,0
20.01.2021 14:00:00 9,5 7,9 18 10 ZW 998,2 14 1,0
20.01.2021 13:00:00 9,0 7,8 15 8 ZZW 998,5 6 -
20.01.2021 12:00:00 8,5 7,3 15 8 Z 998,4 8 4,0
20.01.2021 11:00:00 8,4 6,7 16 9 Z 997,9 6 3,0
20.01.2021 10:00:00 9,2 5,7 18 10 ZZW 998,0 8 -
20.01.2021 09:00:00 8,0 4,4 15 8 ZZW 999,0 8 0,2
20.01.2021 08:00:00 8,4 4,0 16 9 ZZW 999,4 20 0,0
20.01.2021 07:00:00 8,5 4,5 15 8 Z 999,4 8 -
20.01.2021 06:00:00 8,3 4,3 21 11 ZZW 1000,7 9 0,2
20.01.2021 05:00:00 8,3 4,5 16 9 ZZW 1001,4 1,8 0,0
20.01.2021 04:00:00 8,8 4,2 21 11 Z 1002,3 12 -
20.01.2021 03:00:00 8,8 4,2 16 9 ZZW 1003,4 20 0,0
20.01.2021 02:00:00 9,1 2,9 18 10 ZZW 1004,5 20 0,0
20.01.2021 01:00:00 8,9 2,2 18 10 Z 1006,1 11 -
20.01.2021 00:00:00 9,1 2,0 21 11 ZZW 1007,5 1,6 0,0
19.01.2021 23:00:00 9,1 1,5 21 11 Z 1008,1 3,0 0,0
19.01.2021 22:00:00 9,3 1,7 21 11 ZZW 1008,8 0,7 -
19.01.2021 21:00:00 9,3 0,7 16 9 ZZW 1010,9 0,4 0,0
19.01.2021 20:00:00 9,5 0,4 16 9 ZZW 1011,5 0,3 0,0
19.01.2021 19:00:00 9,8 0,9 11 6 Z 1012,2 20 -
19.01.2021 18:00:00 10,1 1,5 16 9 ZZW 1012,5 20 0,0
19.01.2021 17:00:00 10,0 1,6 15 8 ZZW 1013,5 20 0,0
19.01.2021 16:00:00 10,3 1,9 18 10 ZZW 1013,8 20 -
19.01.2021 15:00:00 10,7 1,0 18 10 ZZW 1015,2 20 0,0
19.01.2021 14:00:00 10,9 -0,6 18 10 ZW 1016,3 20 0,0
19.01.2021 13:00:00 10,5 -0,6 18 10 ZZW 1017,7 1,4 -
19.01.2021 12:00:00 9,6 -1,2 15 8 ZZW 1018,5 16 0,0
19.01.2021 11:00:00 7,9 -1,1 9 5 ZZW 1019,2 19 0,0
19.01.2021 10:00:00 7,1 -0,6 9 5 ZW 1019,5 19 -
19.01.2021 09:00:00 6,2 -0,3 11 6 Z 1020,1 19 0,0
19.01.2021 08:00:00 5,7 -0,2 5 3 ZZO 1020,5 20 0,0
19.01.2021 07:00:00 6,8 0,5 11 6 ZZW 1020,7 20 -
19.01.2021 06:00:00 5,3 1,0 8 4 ZZW 1021,5 20 0,0
19.01.2021 05:00:00 2,8 0,4 4 2 ZZW 1023,2 20 0,0
19.01.2021 04:00:00 4,1 1,6 5 3 ZZO 1023,5 20 -
19.01.2021 03:00:00 3,7 2,1 4 2 ZW 1023,9 20 0,0
19.01.2021 02:00:00 2,4 1,5 5 3 Z 1025,0 20 0,0
19.01.2021 01:00:00 2,8 1,3 4 2 ZW 1025,5 20 -
19.01.2021 00:00:00 2,2 1,2 2 1 ZW 1026,2 13 0,0
18.01.2021 23:00:00 2,7 1,4 2 1 ZO 1026,1 11 0,0
18.01.2021 22:00:00 3,2 1,7 4 2 ZZO 1026,4 15 -
18.01.2021 21:00:00 4,3 2,3 2 1 Z 1026,2 20 0,0
18.01.2021 20:00:00 6,0 3,2 2 1 W 1026,0 20 0,0
18.01.2021 19:00:00 8,8 4,2 4 2 ZO 1025,4 20 -
18.01.2021 18:00:00 13,6 5,7 4 2 OZO 1024,4 20 0,0
18.01.2021 17:00:00 15,0 5,8 5 3 ZW 1024,3 0,3 0,0
18.01.2021 16:00:00 14,5 5,3 8 4 ZZW 1024,7 20 -
18.01.2021 15:00:00 13,5 6,8 5 3 WZW 1025,5 20 0,0
18.01.2021 14:00:00 11,0 6,3 4 2 NO 1027,0 20 0,0
18.01.2021 13:00:00 8,9 5,6 4 2 NW 1028,3 20 -
18.01.2021 12:00:00 5,5 4,3 2 1 ZW 1029,9 19 0,0
18.01.2021 11:00:00 4,8 4,1 4 2 W 1029,9 1,7 0,0
18.01.2021 10:00:00 4,9 4,5 8 4 ZW 1029,9 0,4 -
18.01.2021 09:00:00 5,4 4,7 4 2 WZW 1029,4 - 0,0
18.01.2021 08:00:00 5,6 5,0 2 1 NO 1029,6 0,5 0,0
18.01.2021 07:00:00 5,8 4,9 5 3 O 1029,4 15 -
18.01.2021 06:00:00 6,7 6,0 8 4 OZO 1029,3 20 0,0
18.01.2021 05:00:00 6,4 5,2 4 2 ZZW 1029,6 20 0,0
18.01.2021 04:00:00 7,1 6,0 2 1 WZW 1030,0 20 -
18.01.2021 03:00:00 7,4 6,0 2 1 Z 1030,0 13 0,0
18.01.2021 02:00:00 8,2 7,1 2 1 ZZW 1030,1 18 0,0
18.01.2021 01:00:00 8,3 7,4 2 1 NO 1030,6 18 -
18.01.2021 00:00:00 8,5 7,3 2 1 WZW 1030,7 19 0,0
17.01.2021 23:00:00 8,8 7,6 2 1 ZO 1031,0 19 0,0
17.01.2021 22:00:00 9,0 7,6 2 1 W 1031,0 20 -
17.01.2021 21:00:00 9,2 7,8 2 1 OZO 1031,3 20 0,0
17.01.2021 20:00:00 9,5 7,8 2 1 ZO 1031,3 20 0,0
17.01.2021 19:00:00 9,9 8,0 2 1 ONO 1031,3 20 -
17.01.2021 18:00:00 10,6 8,2 0 0 N 1030,9 20 0,0
17.01.2021 17:00:00 10,6 8,0 4 2 NNW 1030,8 20 0,0
17.01.2021 16:00:00 11,1 8,0 4 2 WZW 1030,6 20 -
17.01.2021 15:00:00 10,9 8,1 2 1 W 1030,9 20 0,0
17.01.2021 14:00:00 9,5 7,9 4 2 NNO 1031,7 20 0,0
17.01.2021 13:00:00 6,6 6,2 2 1 NW 1033,3 8 -
17.01.2021 12:00:00 4,8 4,5 2 1 W 1034,2 4,4 0,0
17.01.2021 11:00:00 3,0 2,9 2 1 NO 1034,1 2,4 0,0
17.01.2021 10:00:00 1,7 1,4 2 1 NNO 1033,9 2,1 -
17.01.2021 09:00:00 0,8 0,5 2 1 W 1033,8 2,6 0,0
17.01.2021 08:00:00 -0,1 -0,5 4 2 ZZO 1033,7 1,8 0,0
17.01.2021 07:00:00 -1,7 -2,5 5 3 ZZO 1033,6 6 -
17.01.2021 06:00:00 -1,4 -2,1 4 2 ZZO 1033,7 1,8 0,0
17.01.2021 05:00:00 -1,4 -2,1 5 3 ZO 1033,7 - 0,0
17.01.2021 04:00:00 -1,7 -2,7 2 1 WNW 1033,6 12 -
17.01.2021 03:00:00 -1,2 -2,0 2 1 ZO 1033,3 8 0,0
17.01.2021 02:00:00 -1,1 -2,4 2 1 ZZW 1033,8 15 0,0
17.01.2021 01:00:00 -0,7 -1,5 2 1 ZO 1033,9 17 -
17.01.2021 00:00:00 -0,1 -1,4 2 1 Z 1033,9 19 0,0
16.01.2021 23:00:00 0,0 -1,4 2 1 ZZO 1034,0 20 0,0
16.01.2021 22:00:00 0,5 -0,8 5 3 ZZO 1033,7 18 -
16.01.2021 21:00:00 1,4 -0,2 4 2 ZZO 1033,4 8 0,0
16.01.2021 20:00:00 2,9 1,1 4 2 ZZO 1032,8 - 0,0
16.01.2021 19:00:00 5,2 2,0 4 2 ZZO 1032,2 10 -
16.01.2021 18:00:00 8,3 4,3 2 1 NNW 1031,0 20 0,0
16.01.2021 17:00:00 9,4 4,4 4 2 N 1030,5 20 0,0
16.01.2021 16:00:00 9,2 4,0 4 2 NW 1030,5 20 -
16.01.2021 15:00:00 7,4 3,1 5 3 NNW 1031,1 20 0,0
16.01.2021 14:00:00 7,0 2,9 4 2 NW 1031,6 20 0,0
16.01.2021 13:00:00 5,1 2,1 4 2 N 1032,5 20 -
16.01.2021 12:00:00 2,3 1,1 4 2 NNW 1033,7 20 0,0
16.01.2021 11:00:00 -0,3 -0,7 4 2 ZW 1034,2 18 0,0
16.01.2021 10:00:00 -0,5 -0,9 4 2 Z 1033,9 0,2 -
16.01.2021 09:00:00 -0,3 -0,7 4 2 ZZO 1033,3 0,2 0,0
16.01.2021 08:00:00 -0,2 -0,6 2 1 OZO 1033,2 0,3 0,0
16.01.2021 07:00:00 -0,2 -1,0 2 1 ONO 1032,8 0,4 -
16.01.2021 06:00:00 0,6 -0,3 2 1 ZZW 1032,9 0,3 0,0
16.01.2021 05:00:00 1,6 0,9 4 2 ZW 1033,0 - 0,0
16.01.2021 04:00:00 2,2 1,3 0 0 N 1032,9 10 -
16.01.2021 03:00:00 2,5 1,6 4 2 Z 1032,7 7 0,0
16.01.2021 02:00:00 2,8 2,1 4 2 WZW 1033,0 9 0,0
16.01.2021 01:00:00 3,1 2,4 2 1 Z 1033,1 12 -
16.01.2021 00:00:00 3,2 2,3 5 3 ZZW 1032,7 14 0,0
15.01.2021 23:00:00 4,0 3,3 5 3 ZW 1032,7 7 0,0
15.01.2021 22:00:00 4,6 3,9 2 1 NW 1032,5 7 -
15.01.2021 21:00:00 4,8 4,1 0 0 N 1032,2 6 0,0

tt = temperatuur
td = dauwpunt
ff = windsnelheid
dd = windrichting
ppp = luchtdruk
vv = zicht
rr = neerslag

Weerstations in de omgeving